Location: 22
(39.7117°N, 89.5929°W)
Time: 06:25:01
(UTC-05:00)

Vanguard 1 Rocket - Pass Details

Date: 11 February 2023
Orbit: 652 x 4223 km, 34.3° (Epoch: 26 March)

Event Time Altitude Azimuth Distance (km) Brightness Sun altitude
Rises 16:26:16 0° 279° (W) 5,714 12.4 10.4°
Reaches altitude 10° 16:29:47 10° 271° (W) 5,127 12.5 9.8°
Maximum altitude 16:44:11 38° 211° (SSW) 4,583 11.8 7.3°
Drops below altitude 10° 17:05:38 10° 154° (SSE) 7,410 12.0 3.6°
Sets 17:12:21 0° 147° (SSE) 8,429 12.2 2.4°
